Location: Barrialito
(9.8982°N, 67.7750°W)
Time: 22:28:46
(UTC+00:00)

STARLINK-31357 - Pass Details

Date: 18 April 2024
Orbit: 443 x 445 km, 43.0° (Epoch: 24 May)

Event Time Altitude Azimuth Distance (km) Brightness Sun altitude
Rises 22:49:18 0° 326° (NW) 2,428 7.7 -2.7°
Reaches altitude 10° 22:51:33 10° 335° (NNW) 1,560 6.5 -3.2°
Maximum altitude 22:54:50 35° 43° (NE) 734 4.0 -4.0°
Drops below altitude 10° 22:58:07 10° 111° (ESE) 1,564 5.3 -4.8°
Enters shadow 22:59:04 - 116° (ESE) 1,927 5.8 -5.0°
